Boomer, NC

12:10 AM EST on February 14, 2016 (GMT -0500)
Wilkes County

Weather History for KUKF - October, 2013

Change the Weather History Date:

Wednesday, October 23, 2013

  Actual Average Record
Temperature  
Mean Temperature 48 °F -  
Max Temperature 60 °F - - ()
Min Temperature 37 °F - - ()
Degree Days  
Heating Degree Days 16    
Moisture  
Dew Point 37 °F    
Average Humidity 67    
Maximum Humidity 100    
Minimum Humidity 34    
Precipitation  
Precipitation 0.00 in - - ()
Sea Level Pressure  
Sea Level Pressure 29.89 in    
Wind  
Wind Speed 4 mph (WNW)    
Max Wind Speed 18 mph    
Max Gust Speed 30 mph    
Visibility 10 miles    
Events Fog , Rain    
T = Trace of Precipitation, MM = Missing Value Source: NWS Daily Summary

Daily Weather History Graph

Daily Weather History Graph

Search for Another Location

Airport or City:

Trip Planner

Search our weather history database for the weather conditions in past years. The results will help you decide how hot, cold, wet, or windy it might be!

Date:

Astronomy

Oct. 23, 2013 Rise Set
Actual Time 7:38 AM EDT 6:37 PM EDT
Civil Twilight 7:12 AM EDT 7:04 PM EDT
Nautical Twilight 6:42 AM EDT 7:34 PM EDT
Astronomical Twilight 6:12 AM EDT 8:03 PM EDT
Moon 10:12 PM EDT (10/23) 11:50 AM EDT (10/23)
Length of Visible Light 11h 51m
Length of Day
10h 59m
Waning Gibbous, 79% of the Moon is Illuminated
Oct 23
Waning Gibbous
Oct 26
Last Quarter
Nov 3
New
Nov 10
First Quarter
Nov 17
Full

Hourly Weather History & Observations

Time (EDT) Temp. Windchill Dew Point Humidity Pressure Visibility Wind Dir Wind Speed Gust Speed Precip Events Conditions
12:15 AM 51.8 °F - 51.8 °F 100% 29.85 in 10.0 mi Calm Calm - N/A   Overcast
12:35 AM 51.8 °F - 51.8 °F 100% 29.85 in 10.0 mi Calm Calm - N/A   Overcast
12:55 AM 51.8 °F - 50.0 °F 94% 29.84 in 10.0 mi Calm Calm - N/A   Mostly Cloudy
1:15 AM 51.8 °F - 50.0 °F 94% 29.84 in 10.0 mi Calm Calm - N/A   Mostly Cloudy
1:35 AM 51.8 °F - 50.0 °F 94% 29.83 in 10.0 mi Calm Calm - N/A   Overcast
1:55 AM 50.0 °F - 50.0 °F 100% 29.83 in 10.0 mi Calm Calm - N/A   Mostly Cloudy
2:15 AM 50.0 °F - 50.0 °F 100% 29.83 in 10.0 mi NNE 3.5 mph - N/A   Scattered Clouds
2:35 AM 48.2 °F - 48.2 °F 100% 29.82 in 7.0 mi Calm Calm - N/A   Clear
2:55 AM 46.4 °F 45.2 °F 46.4 °F 100% 29.82 in 7.0 mi North 3.5 mph - N/A   Clear
3:15 AM 46.4 °F - 46.4 °F 100% 29.81 in 5.0 mi Calm Calm - N/A   Clear
3:35 AM 46.4 °F - 46.4 °F 100% 29.80 in 4.0 mi Calm Calm - N/A   Clear
3:55 AM 46.4 °F - 46.4 °F 100% 29.80 in 1.8 mi Calm Calm - N/A   Scattered Clouds
4:15 AM 44.6 °F - 44.6 °F 100% 29.79 in 0.2 mi Calm Calm - N/A Fog Fog
4:55 AM 44.6 °F 43.1 °F 44.6 °F 100% 29.79 in 10.0 mi WNW 3.5 mph - N/A   Scattered Clouds
5:15 AM 46.4 °F 43.5 °F 44.6 °F 93% 29.79 in 10.0 mi NW 5.8 mph - N/A   Clear
5:35 AM 46.4 °F 45.2 °F 42.8 °F 87% 29.79 in 10.0 mi West 3.5 mph - N/A   Clear
5:55 AM 44.6 °F 41.4 °F 42.8 °F 93% 29.80 in 10.0 mi West 5.8 mph - N/A   Clear
6:15 AM 46.4 °F 43.5 °F 41.0 °F 81% 29.80 in 10.0 mi West 5.8 mph - N/A   Clear
6:35 AM 46.4 °F 45.2 °F 39.2 °F 76% 29.80 in 10.0 mi West 3.5 mph - N/A   Clear
6:55 AM 44.6 °F 43.1 °F 37.4 °F 76% 29.81 in 10.0 mi NW 3.5 mph - N/A   Clear
7:15 AM 42.8 °F 41.1 °F 39.2 °F 87% 29.80 in 10.0 mi West 3.5 mph - N/A   Scattered Clouds
7:35 AM 42.8 °F - 39.2 °F 87% 29.79 in 10.0 mi Calm Calm - N/A   Clear
7:55 AM 42.8 °F - 37.4 °F 81% 29.80 in 10.0 mi Calm Calm - N/A   Clear
8:15 AM 42.8 °F - 37.4 °F 81% 29.80 in 10.0 mi Calm Calm - N/A   Clear
8:35 AM 44.6 °F - 39.2 °F 81% 29.80 in 10.0 mi Calm Calm - N/A   Clear
8:55 AM 50.0 °F - 41.0 °F 71% 29.82 in 10.0 mi Calm Calm - N/A   Clear
9:15 AM 50.0 °F - 41.0 °F 71% 29.82 in 10.0 mi Calm Calm - N/A   Clear
9:35 AM 51.8 °F - 41.0 °F 67% 29.82 in 10.0 mi West 3.5 mph - N/A   Scattered Clouds
9:55 AM 53.6 °F - 42.8 °F 67% 29.81 in 10.0 mi West 6.9 mph - N/A   Scattered Clouds
10:15 AM 57.2 °F - 42.8 °F 59% 29.82 in 10.0 mi NW 8.1 mph - N/A   Scattered Clouds
10:35 AM 51.8 °F - 41.0 °F 67% 29.83 in 10.0 mi WNW 6.9 mph 24.2 mph N/A Rain Light Rain
10:55 AM 51.8 °F - 41.0 °F 67% 29.83 in 10.0 mi West 6.9 mph - N/A   Overcast
11:15 AM 55.4 °F - 41.0 °F 58% 29.82 in 10.0 mi West 10.4 mph - N/A   Scattered Clouds
11:35 AM 59.0 °F - 41.0 °F 51% 29.83 in 10.0 mi WSW 10.4 mph 18.4 mph N/A   Scattered Clouds
11:55 AM 59.0 °F - 37.4 °F 45% 29.82 in 10.0 mi West 18.4 mph 25.3 mph N/A   Mostly Cloudy
12:15 PM 59.0 °F - 33.8 °F 39% 29.82 in 10.0 mi West 12.7 mph 23.0 mph N/A   Scattered Clouds
12:35 PM 60.8 °F - 33.8 °F 36% 29.83 in 10.0 mi West 13.8 mph 25.3 mph N/A   Scattered Clouds
12:55 PM 59.0 °F - 33.8 °F 39% 29.82 in 10.0 mi WNW 13.8 mph 21.9 mph N/A   Scattered Clouds
1:15 PM 59.0 °F - 33.8 °F 39% 29.82 in 10.0 mi West 11.5 mph 23.0 mph N/A   Scattered Clouds
1:35 PM 60.8 °F - 33.8 °F 36% 29.83 in 10.0 mi WNW 10.4 mph 16.1 mph N/A   Scattered Clouds
1:55 PM 60.8 °F - 32.0 °F 34% 29.82 in 10.0 mi WSW 16.1 mph 27.6 mph N/A   Mostly Cloudy
2:15 PM 59.0 °F - 32.0 °F 36% 29.83 in 10.0 mi WSW 12.7 mph 26.5 mph N/A   Scattered Clouds
2:35 PM 60.8 °F - 32.0 °F 34% 29.84 in 10.0 mi West 15.0 mph 26.5 mph N/A   Mostly Cloudy
2:55 PM 53.6 °F - 32.0 °F 44% 29.86 in 10.0 mi WNW 12.7 mph 29.9 mph N/A   Scattered Clouds
3:15 PM 55.4 °F - 30.2 °F 38% 29.87 in 10.0 mi WNW 12.7 mph 27.6 mph N/A   Clear
3:35 PM 57.2 °F - 32.0 °F 38% 29.88 in 10.0 mi West 15.0 mph 27.6 mph N/A   Scattered Clouds
3:55 PM 55.4 °F - 32.0 °F 41% 29.88 in 10.0 mi WNW 16.1 mph 25.3 mph N/A   Clear
4:15 PM 51.8 °F - 32.0 °F 47% 29.90 in 10.0 mi WNW 15.0 mph 24.2 mph N/A   Scattered Clouds
4:35 PM 50.0 °F - 32.0 °F 50% 29.92 in 10.0 mi WNW 18.4 mph 26.5 mph N/A   Mostly Cloudy
4:55 PM 50.0 °F - 32.0 °F 50% 29.93 in 10.0 mi WNW 9.2 mph 27.6 mph N/A   Scattered Clouds
5:15 PM 50.0 °F - 32.0 °F 50% 29.93 in 10.0 mi WNW 10.4 mph 19.6 mph N/A   Scattered Clouds
5:35 PM 48.2 °F - 30.2 °F 50% 29.95 in 10.0 mi West 9.2 mph 21.9 mph N/A   Mostly Cloudy
5:55 PM 48.2 °F - 30.2 °F 50% 29.96 in 10.0 mi WNW 11.5 mph 21.9 mph N/A   Overcast
6:15 PM 46.4 °F 40.4 °F 30.2 °F 53% 29.97 in 10.0 mi WNW 13.8 mph 20.7 mph N/A   Overcast
6:35 PM 46.4 °F 42.4 °F 30.2 °F 53% 29.97 in 10.0 mi WNW 8.1 mph 18.4 mph N/A   Overcast
6:55 PM 46.4 °F 42.9 °F 30.2 °F 53% 29.99 in 10.0 mi WNW 6.9 mph - N/A   Overcast
7:15 PM 46.4 °F 45.2 °F 30.2 °F 53% 30.00 in 10.0 mi West 3.5 mph - N/A   Overcast
7:35 PM 46.4 °F 42.4 °F 30.2 °F 53% 30.01 in 10.0 mi NW 8.1 mph 17.3 mph N/A   Overcast
7:55 PM 44.6 °F 43.1 °F 32.0 °F 61% 30.02 in 10.0 mi NW 3.5 mph 16.1 mph N/A   Mostly Cloudy
8:15 PM 44.6 °F 39.2 °F 32.0 °F 61% 30.03 in 10.0 mi NW 10.4 mph - N/A   Mostly Cloudy
8:35 PM 42.8 °F 38.0 °F 30.2 °F 61% 30.03 in 10.0 mi North 8.1 mph - N/A   Overcast
8:55 PM 42.8 °F 40.1 °F 30.2 °F 61% 30.04 in 10.0 mi NNW 4.6 mph - N/A   Overcast
9:15 PM 42.8 °F 38.6 °F 32.0 °F 66% 30.05 in 10.0 mi NNW 6.9 mph - N/A   Overcast
9:35 PM 42.8 °F 38.0 °F 30.2 °F 61% 30.06 in 10.0 mi NW 8.1 mph 18.4 mph N/A   Overcast
9:55 PM 42.8 °F 38.0 °F 28.4 °F 57% 30.07 in 10.0 mi WNW 8.1 mph 12.7 mph N/A   Mostly Cloudy
10:15 PM 41.0 °F 35.8 °F 28.4 °F 61% 30.07 in 10.0 mi NW 8.1 mph - N/A   Mostly Cloudy
10:35 PM 41.0 °F 34.3 °F 28.4 °F 61% 30.08 in 10.0 mi NW 11.5 mph 18.4 mph N/A   Mostly Cloudy
10:55 PM 41.0 °F 36.4 °F 28.4 °F 61% 30.08 in 10.0 mi WNW 6.9 mph - N/A   Clear
11:15 PM 39.2 °F - 28.4 °F 65% 30.09 in 10.0 mi Calm Calm - N/A   Clear
11:35 PM 37.4 °F - 28.4 °F 70% 30.10 in 10.0 mi Calm Calm - N/A   Clear
11:55 PM 37.4 °F - 28.4 °F 70% 30.10 in 10.0 mi Calm Calm - N/A   Mostly Cloudy